Regional Weather Roundup
Issued by NWS

Home | Current Version | Previous Version | Graphics & Text | Print | Product List | Glossary On
Versions: 1 2 3 4 5 6 7 8 9 10 11 12 13 14 15 16 17 18 19 20 21 22 23 24 25 26 27 28 29 30 31 32 33 34 35 36 37 38 39 40 41 42 43 44 45 46 47 48 49 50
000
ASUS43 KTOP 040259
RWRKS

WEATHER ROUNDUP FOR KANSAS
NATIONAL WEATHER SERVICE GOODLAND KS
1000 PM CDT THU SEP 03 2015

NOTE:  "FAIR" INDICATES FEW OR NO CLOUDS BELOW 12,000 FEET WITH NO
SIGNIFICANT WEATHER AND/OR OBSTRUCTIONS TO VISIBILITY.

KSZ001>006-013>018-027>032-041>047-040400-
NORTHWEST KANSAS

CITY           SKY/WX    TMP DP  RH WIND       PRES   REMARKS
GOODLAND       CLOUDY    81  53  37 S13       29.83R
HAYS           CLOUDY    88  57  35 S17G23    29.81R
HILL CITY      CLOUDY    87  58  37 S14       29.80R
RUSSELL        CLOUDY    85  61  44 S18       29.81R
$$

KSZ061>065-074>080-084>089-040400-
SOUTHWEST KANSAS

CITY           SKY/WX    TMP DP  RH WIND       PRES   REMARKS
DODGE CITY     MOCLDY    82  57  42 S18G26    29.86R
ELKHART          N/A     80  56  43 S12         N/A
GARDEN CITY    MOCLDY    82  56  40 S14       29.85R
GREAT BEND     MOCLDY    82  61  47 S14       29.83R
LIBERAL        MOCLDY    82  54  36 S12       29.88R
$$

KSZ066>073-081>083-090>101-040400-
SOUTHEAST KANSAS

CITY           SKY/WX    TMP DP  RH WIND       PRES   REMARKS
CHANUTE        PTCLDY    76  69  79 SE6       29.92R
COFFEYVILLE    PTCLDY    75  70  84 SE5       29.91R
HUTCHINSON     CLOUDY    80  63  55 SE13      29.86R
NEWTON         MOCLDY    77  63  61 SE10      29.91R
PARSONS        PTCLDY    76  70  82 SE5       29.93R
WICHITA INTL   CLOUDY    81  66  60 SE14      29.87R
WICHITA JABRA  CLOUDY    80  66  62 SE13      29.88R
WINFIELD       MOCLDY    79  67  66 SE9       29.90R
$$

KSZ007>012-019>026-033>040-048>060-102>105-040400-
NORTHEAST KANSAS

CITY           SKY/WX    TMP DP  RH WIND       PRES   REMARKS
CONCORDIA      MOCLDY    81  64  56 SE12      29.84R
EMPORIA        PTCLDY    76  67  73 SE10      29.90R
LAWRENCE       PTCLDY    74  69  85 SE6       29.91R
MANHATTAN      MOCLDY    80  65  59 S8        29.86R
OLATHE IND     PTCLDY    74  69  85 S7        29.93R
OLATHE EXE     PTCLDY    74  68  81 S6        29.92R
SALINA         MOCLDY    82  64  54 S14       29.84R
TOPEKA BILLARD PTCLDY    79  68  69 S9        29.89R
TOPEKA FORBES  PTCLDY    78  68  71 S7        29.90R
$$


USA.gov is the U.S. government's official web portal to all federal, state and local government web resources and services.